When you browse on this site, cookies collect data to enhance your experience and personalize the content and advertising you see.
Visit our Privacy Policy to learn more. By continuing to use the site, you agree to this use of cookies and data.
  • In France
  • List of Countries
  • For 7 days
  • Water Temperature
  • Satellite Maps
  • Weather Map
  • Weather Widgets
  • user-avatar
    Login

    Hourly Weather Durres

    Today, 26 June, Wednesday

    Time Temperature Precipitation Wind Pressure Humidity
    00:00 +26°C° 0 mm 5 mps 763 mmHg 58%
    01:00 +26°C° 0 mm 5 mps 762 mmHg 56%
    02:00 +25°C° 0 mm 5 mps 762 mmHg 57%
    03:00 +25°C° 0 mm 5 mps 762 mmHg 57%
    04:00 +25°C° 0 mm 5 mps 762 mmHg 58%
    05:00 +26°C° 0 mm 5 mps 762 mmHg 57%
    06:00 +28°C° 0 mm 5 mps 762 mmHg 56%
    07:00 +30°C° 0 mm 4 mps 762 mmHg 54%
    08:00 +32°C° 0 mm 4 mps 762 mmHg 49%
    09:00 +34°C° 0 mm 4 mps 762 mmHg 44%
    10:00 +35°C° 0 mm 4 mps 762 mmHg 40%
    11:00 +36°C° 0 mm 5 mps 762 mmHg 38%
    12:00 +37°C° 0 mm 5 mps 762 mmHg 36%
    13:00 +38°C° 0 mm 6 mps 762 mmHg 34%
    14:00 +38°C° 0 mm 6 mps 762 mmHg 35%
    15:00 +38°C° 0 mm 7 mps 762 mmHg 36%
    16:00 +38°C° 0 mm 7 mps 761 mmHg 36%
    17:00 +35°C° 0 mm 7 mps 761 mmHg 43%
    18:00 +33°C° 0 mm 7 mps 762 mmHg 49%
    19:00 +30°C° 0 mm 7 mps 762 mmHg 56%
    20:00 +29°C° 0 mm 6 mps 762 mmHg 57%
    21:00 +28°C° 0 mm 5 mps 762 mmHg 59%
    22:00 +27°C° 0 mm 4 mps 762 mmHg 60%
    23:00 +27°C° 0 mm 4 mps 762 mmHg 61%

    Tomorrow, 27 June, Thursday

    Time Temperature Precipitation Wind Pressure Humidity
    00:00 +27°C° 0 mm 4 mps 762 mmHg 61%
    01:00 +26°C° 0 mm 3 mps 762 mmHg 61%
    02:00 +26°C° 0 mm 3 mps 762 mmHg 61%
    03:00 +26°C° 0 mm 3 mps 762 mmHg 62%
    04:00 +25°C° 0 mm 3 mps 761 mmHg 62%
    05:00 +27°C° 0 mm 3 mps 761 mmHg 59%
    06:00 +29°C° 0 mm 3 mps 761 mmHg 55%
    07:00 +30°C° 0 mm 3 mps 761 mmHg 52%
    08:00 +33°C° 0 mm 3 mps 761 mmHg 47%
    09:00 +35°C° 0 mm 4 mps 761 mmHg 42%
    10:00 +36°C° 0 mm 4 mps 761 mmHg 37%
    11:00 +37°C° 0 mm 4 mps 761 mmHg 35%
    12:00 +39°C° 0 mm 5 mps 760 mmHg 34%
    13:00 +39°C° 0 mm 6 mps 760 mmHg 33%
    14:00 +38°C° 0 mm 7 mps 760 mmHg 37%
    15:00 +36°C° 0 mm 7 mps 759 mmHg 41%
    16:00 +35°C° 0 mm 8 mps 759 mmHg 45%
    17:00 +33°C° 0 mm 8 mps 759 mmHg 53%
    18:00 +30°C° 0 mm 7 mps 758 mmHg 60%
    19:00 +28°C° 0 mm 6 mps 758 mmHg 67%
    20:00 +27°C° 0 mm 6 mps 758 mmHg 66%
    21:00 +27°C° 0 mm 5 mps 759 mmHg 64%
    22:00 +26°C° 0 mm 5 mps 759 mmHg 63%
    23:00 +26°C° 0 mm 4 mps 759 mmHg 61%

    Day after tomorrow, 28 June, Friday

    Time Temperature Precipitation Wind Pressure Humidity
    00:00 +25°C° 0 mm 3 mps 758 mmHg 59%
    01:00 +25°C° 0 mm 2 mps 758 mmHg 58%
    02:00 +25°C° 0 mm 2 mps 758 mmHg 57%
    03:00 +25°C° 0 mm 2 mps 758 mmHg 57%
    04:00 +25°C° 0 mm 2 mps 758 mmHg 57%
    05:00 +26°C° 0 mm 1 mps 758 mmHg 54%
    06:00 +28°C° 0 mm 1 mps 757 mmHg 51%
    07:00 +30°C° 0 mm 1 mps 757 mmHg 48%
    08:00 +32°C° 0 mm 2 mps 757 mmHg 44%
    09:00 +34°C° 0 mm 3 mps 757 mmHg 41%
    10:00 +36°C° 0 mm 3 mps 757 mmHg 38%
    11:00 +37°C° 0 mm 4 mps 757 mmHg 35%
    12:00 +39°C° 0 mm 5 mps 757 mmHg 32%
    13:00 +40°C° 0 mm 6 mps 756 mmHg 29%
    14:00 +39°C° 0 mm 7 mps 756 mmHg 29%
    15:00 +39°C° 0 mm 7 mps 756 mmHg 30%
    16:00 +38°C° 0 mm 8 mps 756 mmHg 31%
    17:00 +35°C° 0 mm 7 mps 756 mmHg 40%
    18:00 +32°C° 0 mm 7 mps 756 mmHg 49%
    19:00 +29°C° 0 mm 7 mps 756 mmHg 58%
    20:00 +28°C° 0 mm 7 mps 757 mmHg 59%
    21:00 +27°C° 0 mm 7 mps 757 mmHg 61%
    22:00 +26°C° 0 mm 8 mps 757 mmHg 62%
    23:00 +26°C° 0 mm 7 mps 757 mmHg 61%

    29 June, Saturday

    Time Temperature Precipitation Wind Pressure Humidity
    00:00 +24°C° 0 mm 7 mps 757 mmHg 60%
    01:00 +23°C° 0 mm 7 mps 757 mmHg 59%
    02:00 +23°C° 0 mm 7 mps 757 mmHg 59%
    03:00 +22°C° 0 mm 7 mps 757 mmHg 59%
    04:00 +21°C° 0 mm 7 mps 757 mmHg 59%
    05:00 +22°C° 0 mm 7 mps 757 mmHg 55%
    06:00 +24°C° 0 mm 6 mps 757 mmHg 52%
    07:00 +26°C° 0 mm 6 mps 758 mmHg 49%
    08:00 +28°C° 0 mm 6 mps 758 mmHg 42%
    09:00 +30°C° 0 mm 5 mps 758 mmHg 36%
    10:00 +33°C° 0 mm 5 mps 758 mmHg 29%
    11:00 +34°C° 0 mm 6 mps 758 mmHg 28%
    12:00 +35°C° 0 mm 6 mps 758 mmHg 26%
    13:00 +36°C° 0 mm 7 mps 758 mmHg 24%
    14:00 +36°C° 0 mm 7 mps 758 mmHg 24%
    15:00 +37°C° 0 mm 8 mps 758 mmHg 25%
    16:00 +37°C° 0 mm 9 mps 758 mmHg 25%
    17:00 +33°C° 0 mm 8 mps 759 mmHg 32%
    18:00 +31°C° 0 mm 8 mps 759 mmHg 39%
    19:00 +27°C° 0 mm 9 mps 759 mmHg 46%
    20:00 +26°C° 0 mm 8 mps 759 mmHg 46%
    21:00 +24°C° 0 mm 7 mps 760 mmHg 45%
    22:00 +23°C° 0 mm 6 mps 760 mmHg 44%
    23:00 +22°C° 0 mm 6 mps 760 mmHg 45%

    30 June, Sunday

    Time Temperature Precipitation Wind Pressure Humidity
    00:00 +22°C° 0 mm 6 mps 760 mmHg 45%
    01:00 +21°C° 0 mm 6 mps 760 mmHg 46%
    02:00 +21°C° 0 mm 5 mps 760 mmHg 49%
    03:00 +20°C° 0 mm 5 mps 760 mmHg 53%
    04:00 +20°C° 0 mm 5 mps 760 mmHg 56%
    05:00 +22°C° 0 mm 5 mps 760 mmHg 53%
    06:00 +23°C° 0 mm 5 mps 761 mmHg 50%
    07:00 +26°C° 0 mm 5 mps 761 mmHg 47%
    08:00 +28°C° 0 mm 4 mps 761 mmHg 41%
    09:00 +30°C° 0 mm 3 mps 761 mmHg 36%
    10:00 +34°C° 0 mm 3 mps 762 mmHg 30%
    11:00 +34°C° 0 mm 3 mps 762 mmHg 29%
    12:00 +35°C° 0 mm 4 mps 761 mmHg 29%
    13:00 +36°C° 0 mm 4 mps 761 mmHg 28%
    14:00 +35°C° 0 mm 5 mps 761 mmHg 30%
    15:00 +35°C° 0 mm 6 mps 761 mmHg 32%
    16:00 +34°C° 0 mm 7 mps 761 mmHg 33%
    17:00 +32°C° 0 mm 7 mps 761 mmHg 41%
    18:00 +30°C° 0 mm 7 mps 761 mmHg 49%
    19:00 +28°C° 0 mm 7 mps 761 mmHg 57%
    20:00 +27°C° 0 mm 6 mps 762 mmHg 57%
    21:00 +26°C° 0 mm 6 mps 762 mmHg 56%
    22:00 +25°C° 0 mm 5 mps 762 mmHg 56%
    23:00 +23°C° 0 mm 4 mps 762 mmHg 55%

    1 July, Monday

    Time Temperature Precipitation Wind Pressure Humidity
    00:00 +23°C° 0 mm 4 mps 762 mmHg 55%
    01:00 +22°C° 0 mm 3 mps 762 mmHg 55%
    02:00 +22°C° 0 mm 3 mps 762 mmHg 55%
    03:00 +22°C° 0 mm 3 mps 762 mmHg 55%
    04:00 +21°C° 0 mm 3 mps 762 mmHg 55%
    05:00 +24°C° 0 mm 3 mps 762 mmHg 52%
    06:00 +26°C° 0 mm 3 mps 762 mmHg 50%
    07:00 +28°C° 0 mm 2 mps 762 mmHg 47%
    08:00 +30°C° 0 mm 2 mps 762 mmHg 43%
    09:00 +31°C° 0 mm 2 mps 762 mmHg 39%
    10:00 +33°C° 0 mm 1 mps 762 mmHg 35%
    11:00 +34°C° 0 mm 2 mps 762 mmHg 36%
    12:00 +34°C° 0 mm 3 mps 762 mmHg 37%
    13:00 +35°C° 0 mm 3 mps 762 mmHg 38%
    14:00 +34°C° 0 mm 4 mps 761 mmHg 39%
    15:00 +33°C° 0 mm 4 mps 761 mmHg 41%
    16:00 +33°C° 0 mm 4 mps 761 mmHg 43%
    17:00 +30°C° 0 mm 4 mps 761 mmHg 52%
    18:00 +28°C° 0 mm 3 mps 761 mmHg 61%
    19:00 +26°C° 0 mm 3 mps 761 mmHg 70%
    20:00 +25°C° 0 mm 2 mps 761 mmHg 72%
    21:00 +25°C° 0 mm 2 mps 761 mmHg 74%
    22:00 +24°C° 0 mm 1 mps 761 mmHg 76%
    23:00 +24°C° 0 mm 1 mps 761 mmHg 75%
    Show more